GW0031 Weather Reports


time (UTC)temp
C
wind
direction
speed
KPH
gust
KPH
rain 1hr
cm
rain 24hr
cm
rain mn
cm
humidity
%
barometer
mb
20260506004616 13 165 1.6 6.4 0.00 0.00 0.00 79 1018.7
20260506004537 18 187 6.4 14.5 0.00 0.00 0.00 79 1009.2
20260506003104 13 161 1.6 6.4 0.00 0.00 0.00 78 1018.7
20260506003037 18 229 8.0 16.1 0.00 0.00 0.00 78 1009.3
20260506001557 14 141 1.6 4.8 0.00 0.00 0.00 76 1018.9
20260506001534 18 234 8.0 16.1 0.00 0.00 0.00 78 1009.4
20260506000053 14 115 3.2 6.4 0.00 0.00 0.00 77 1019.1
20260506000033 18 176 3.2 9.7 0.00 0.00 0.00 79 1009.6
20260505234617 14 157 1.6 4.8 0.00 0.00 0.00 77 1019.2
20260505234540 19 206 1.6 9.7 0.00 0.00 0.00 77 1009.7
20260505233051 13 0 0.0 0.0 0.00 0.00 0.00 78 1019.1
20260505233034 20 189 3.2 11.3 0.00 0.00 0.00 76 1009.7
20260505231556 13 0 0.0 3.2 0.00 0.00 0.00 79 1019.0
20260505231545 20 223 3.2 11.3 0.00 0.00 0.00 75 1009.6
20260505230054 13 155 1.6 4.8 0.00 0.00 0.00 79 1018.7
20260505230034 20 229 6.4 14.5 0.00 0.00 0.00 74 1009.7
20260505224557 13 155 0.0 3.2 0.00 0.00 0.00 78 1019.0
20260505224532 20 204 6.4 12.9 0.00 0.00 0.00 74 1010.0
20260505223057 13 155 1.6 3.2 0.00 0.00 0.00 78 1019.2
20260505223032 20 189 6.4 16.1 0.00 0.00 0.00 73 1010.0
20260505221558 13 155 1.6 3.2 0.00 0.00 0.00 77 1019.1
20260505221530 20 199 6.4 17.7 0.00 0.00 0.00 73 1010.0
20260505220105 13 155 1.6 3.2 0.00 0.00 0.00 76 1019.2
20260505220040 20 215 9.7 17.7 0.00 0.00 0.00 72 1010.1
20260505214602 14 155 1.6 3.2 0.00 0.00 0.00 76 1019.2
20260505214536 20 225 6.4 17.7 0.00 0.00 0.00 72 1010.1
20260505213104 14 155 1.6 4.8 0.00 0.00 0.00 75 1019.4
20260505213035 20 171 9.7 17.7 0.00 0.00 0.00 72 1010.2
20260505211601 14 147 0.0 3.2 0.00 0.00 0.00 74 1019.6
20260505211535 20 140 3.2 16.1 0.00 0.00 0.00 71 1010.3
20260505210056 15 147 1.6 3.2 0.00 0.00 0.00 73 1019.5
20260505210033 20 223 8.0 14.5 0.00 0.00 0.00 72 1010.3
20260505204603 15 151 1.6 9.7 0.00 0.00 0.00 73 1019.5
20260505204536 20 184 1.6 12.9 0.00 0.00 0.00 72 1010.4
20260505203054 15 173 1.6 4.8 0.00 0.00 0.00 72 1019.6
20260505203033 20 169 1.6 6.4 0.00 0.00 0.00 74 1010.5
20260505201557 16 142 3.2 11.3 0.00 0.00 0.00 70 1019.5
20260505201538 20 196 1.6 8.0 0.00 0.00 0.00 72 1010.4
20260505200054 16 166 3.2 11.3 0.00 0.00 0.00 70 1019.6
20260505200043 21 0 0.0 16.1 0.00 0.00 0.00 69 1010.4
20260505194553 16 152 4.8 8.0 0.00 0.00 0.00 70 1019.6
20260505194538 21 208 4.8 17.7 0.00 0.00 0.00 69 1010.4
20260505193056 16 172 3.2 9.7 0.00 0.00 0.00 69 1019.6
20260505193032 21 120 6.4 11.3 0.00 0.00 0.00 70 1010.5
20260505191558 16 158 1.6 6.4 0.00 0.00 0.00 69 1019.8
20260505191534 21 195 1.6 9.7 0.00 0.00 0.00 68 1010.5
20260505190054 17 150 1.6 6.4 0.00 0.00 0.00 67 1019.9
20260505190040 22 244 3.2 9.7 0.00 0.00 0.00 67 1010.3
20260505184558 17 157 4.8 11.3 0.00 0.00 0.00 66 1019.7
20260505184535 22 222 3.2 9.7 0.00 0.00 0.00 67 1010.3
20260505183054 17 142 4.8 9.7 0.00 0.00 0.00 66 1019.7
20260505183039 22 241 4.8 12.9 0.00 0.00 0.00 66 1010.2
20260505181551 17 130 4.8 8.0 0.00 0.00 0.00 65 1019.6
20260505181533 22 206 3.2 11.3 0.00 0.00 0.00 67 1010.2
20260505180059 17 165 4.8 9.7 0.00 0.00 0.00 63 1019.5
20260505180037 22 220 4.8 11.3 0.00 0.00 0.00 66 1010.0
20260505174609 18 164 3.2 8.0 0.00 0.00 0.00 61 1019.4
20260505174540 22 229 4.8 9.7 0.00 0.00 0.00 66 1009.9
20260505173053 18 159 3.2 6.4 0.00 0.00 0.00 60 1019.4
20260505173032 22 227 1.6 9.7 0.00 0.00 0.00 65 1009.9
20260505171552 18 161 1.6 6.4 0.00 0.00 0.00 59 1019.4
20260505171536 22 206 1.6 9.7 0.00 0.00 0.00 64 1010.0
20260505170134 19 161 1.6 6.4 0.00 0.00 0.00 57 1019.2
20260505170034 23 215 3.2 9.7 0.00 0.00 0.00 63 1009.8
20260505164553 20 163 3.2 11.3 0.00 0.00 0.00 55 1019.0
20260505164533 23 211 3.2 9.7 0.00 0.00 0.00 62 1009.7
20260505163056 21 164 3.2 9.7 0.00 0.00 0.00 54 1019.1
20260505163031 23 196 3.2 9.7 0.00 0.00 0.00 60 1009.6
20260505161600 21 167 4.8 9.7 0.00 0.00 0.00 52 1018.8
20260505161530 23 256 3.2 9.7 0.00 0.00 0.00 60 1009.5
20260505153058 23 153 8.0 17.7 0.00 0.00 0.00 49 1018.7
20260505153033 26 208 8.0 16.1 0.00 0.00 0.00 55 1009.3
20260505151558 23 174 6.4 22.5 0.00 0.00 0.00 47 1018.7
20260505151534 26 193 6.4 16.1 0.00 0.00 0.00 53 1009.3
20260505130112 26 86 12.9 27.4 0.00 0.00 0.00 43 1018.9
20260505124608 26 118 8.0 25.7 0.00 0.00 0.00 46 1019.1
20260505124539 28 201 12.9 27.4 0.00 0.00 0.00 46 1009.3
20260505123116 26 91 12.9 25.7 0.00 0.00 0.00 46 1019.1
20260505123042 28 232 14.5 29.0 0.00 0.00 0.00 45 1009.4
20260505121555 26 94 12.9 24.1 0.00 0.00 0.00 49 1019.3
20260505121535 28 253 14.5 27.4 0.00 0.00 0.00 47 1009.5
20260505120057 26 195 11.3 32.2 0.00 0.00 0.00 51 1019.5
20260505120033 28 98 8.0 27.4 0.00 0.00 0.00 48 1009.7
20260505114612 26 86 11.3 25.7 0.00 0.00 0.00 53 1019.7
20260505114535 28 226 9.7 27.4 0.00 0.00 0.00 48 1010.2
20260505113058 26 177 14.5 24.1 0.00 0.00 0.00 55 1020.1
20260505113034 28 209 12.9 20.9 0.00 0.00 0.00 48 1010.4
20260505111605 26 144 11.3 20.9 0.00 0.00 0.00 53 1020.2
20260505111537 28 201 12.9 29.0 0.00 0.00 0.00 48 1010.7
20260505101557 25 151 8.0 20.9 0.00 0.00 0.00 59 1021.3
20260505101535 27 153 8.0 24.1 0.00 0.00 0.00 53 1011.9
20260505100055 25 88 8.0 19.3 0.00 0.00 0.00 58 1021.7
20260505100033 26 234 9.7 25.7 0.00 0.00 0.00 55 1012.3
20260505094552 24 57 8.0 19.3 0.00 0.00 0.00 59 1021.9
20260505094535 26 246 9.7 24.1 0.00 0.00 0.00 55 1012.7
20260505093058 24 137 9.7 19.3 0.00 0.00 0.00 60 1022.1
20260505093031 26 227 8.0 24.1 0.00 0.00 0.00 55 1013.0
20260505091554 24 98 9.7 20.9 0.00 0.00 0.00 63 1022.4
20260505091532 26 212 12.9 25.7 0.00 0.00 0.00 56 1013.4
20260505090059 23 125 9.7 22.5 0.00 0.00 0.00 64 1022.7
20260505090038 26 227 12.9 24.1 0.00 0.00 0.00 58 1013.7
20260505084554 22 87 11.3 22.5 0.00 0.00 0.00 66 1022.9
20260505084531 25 227 12.9 22.5 0.00 0.00 0.00 59 1013.8
20260505083105 22 150 8.0 20.9 0.00 0.00 0.00 68 1023.1
20260505083032 25 289 9.7 22.5 0.00 0.00 0.00 61 1014.0
20260505081558 22 136 8.0 22.5 0.00 0.00 0.00 70 1023.2
20260505081542 25 204 11.3 20.9 0.00 0.00 0.00 63 1014.3
20260505080057 21 176 9.7 22.5 0.00 0.00 0.00 71 1023.4
20260505080038 24 208 9.7 20.9 0.00 0.00 0.00 63 1014.3
20260505074553 21 139 14.5 20.9 0.00 0.00 0.00 71 1023.3
20260505074532 24 253 8.0 20.9 0.00 0.00 0.00 64 1014.4
20260505073056 21 125 11.3 22.5 0.00 0.00 0.00 74 1023.3
20260505073044 23 223 9.7 24.1 0.00 0.00 0.00 67 1014.5
20260505071553 20 130 9.7 25.7 0.00 0.00 0.00 77 1023.4
20260505071546 23 235 9.7 22.5 0.00 0.00 0.00 68 1014.5
20260505070055 19 171 12.9 22.5 0.00 0.00 0.00 80 1023.3
20260505070033 22 241 11.3 24.1 0.00 0.00 0.00 71 1014.3
20260505064559 18 118 16.1 25.7 0.00 0.00 0.00 81 1023.2
20260505064532 22 194 9.7 22.5 0.00 0.00 0.00 73 1014.4
20260505063055 18 179 12.9 30.6 0.00 0.00 0.00 83 1022.9
20260505063035 21 0 1.6 9.7 0.00 0.00 0.00 80 1014.6
20260505061554 17 185 17.7 30.6 0.00 0.00 0.00 85 1022.7
20260505061534 19 105 0.0 6.4 0.00 0.00 0.00 84 1014.6
20260505060058 17 153 16.1 29.0 0.00 0.00 0.00 86 1022.5
20260505060031 18 124 0.0 4.8 0.00 0.00 0.00 85 1014.3
20260505054601 16 152 14.5 25.7 0.00 0.00 0.00 87 1022.6
20260505054548 18 0 0.0 3.2 0.00 0.00 0.00 85 1014.2
20260505053109 16 148 9.7 19.3 0.00 0.00 0.00 89 1022.6
20260505053051 18 0 0.0 3.2 0.00 0.00 0.00 84 1014.2
20260505051552 15 133 8.0 14.5 0.00 0.00 0.00 89 1022.4
20260505051541 17 0 0.0 4.8 0.00 0.00 0.00 87 1014.0
20260505041611 13 135 3.2 12.9 0.00 0.00 0.00 91 1022.1
20260505041536 17 215 0.0 9.7 0.00 0.00 0.00 89 1013.5
20260505040056 13 141 6.4 14.5 0.00 0.00 0.00 91 1021.7
20260505040041 16 209 1.6 11.3 0.00 0.00 0.00 89 1013.5
20260505034558 13 169 8.0 16.1 0.00 0.00 0.00 91 1021.7
20260505034535 15 183 0.0 4.8 0.00 0.00 0.00 91 1013.5
20260505033056 13 162 8.0 16.1 0.00 0.00 0.00 91 1021.6
20260505033036 15 0 0.0 8.0 0.00 0.00 0.00 88 1013.4
20260505031602 13 184 9.7 19.3 0.00 0.00 0.00 91 1021.3
20260505031533 16 199 4.8 9.7 0.00 0.00 0.00 90 1013.4
20260505030051 13 169 8.0 14.5 0.00 0.00 0.00 91 1021.3
20260505030035 15 153 0.0 4.8 0.00 0.00 0.00 89 1013.4
20260505024555 13 185 9.7 16.1 0.00 0.00 0.00 91 1021.0
20260505024534 15 175 1.6 8.0 0.00 0.00 0.00 89 1013.2
20260505023103 13 153 9.7 12.9 0.00 0.00 0.00 91 1021.2
20260505023034 15 200 1.6 6.4 0.00 0.00 0.00 89 1013.3
20260505021605 13 155 6.4 11.3 0.00 0.00 0.00 90 1021.4
20260505021530 15 0 3.2 11.3 0.00 0.00 0.00 88 1013.2
20260505020053 13 157 4.8 8.0 0.00 0.00 0.00 90 1021.5
20260505020032 15 176 4.8 11.3 0.00 0.00 0.00 87 1013.4
20260505014553 13 161 3.2 6.4 0.00 0.00 0.00 90 1021.6
20260505014536 15 194 3.2 12.9 0.00 0.00 0.00 87 1013.2
20260505013059 13 169 3.2 6.4 0.00 0.00 0.00 90 1021.5
20260505013032 15 177 3.2 9.7 0.00 0.00 0.00 87 1013.4
20260505011557 13 165 1.6 6.4 0.00 0.00 0.00 90 1021.6
20260505011541 15 0 0.0 4.8 0.00 0.00 0.00 86 1013.4
20260505010056 13 166 1.6 4.8 0.00 0.00 0.00 90 1021.6
20260505010032 15 173 1.6 6.4 0.00 0.00 0.00 85 1013.5